Location: Milton
(43.5183°N, 79.8775°W)
Time: 09:55:37
(UTC+00:00)

Gurwin Techsat 1B - Pass Details

Date: 23 April 2024
Orbit: 811 x 812 km, 98.9° (Epoch: 29 May)

Event Time Altitude Azimuth Distance (km) Brightness Sun altitude
Rises 09:12:38 0° 11° (NNE) 3,346 12.5 -12.4°
Reaches altitude 10° 09:14:59 10° 10° (N) 2,410 11.7 -12.1°
Maximum altitude 09:20:17 70° 288° (WNW) 863 8.6 -11.2°
Drops below altitude 10° 09:25:32 10° 205° (SSW) 2,392 10.6 -10.4°
Enters shadow 09:26:23 - 204° (SSW) 2,723 10.9 -10.3°
